| time (UTC) | temp C | wind direction | speed KPH | gust KPH | rain 1hr cm | rain 24hr cm | rain mn cm | humidity % | barometer mb |
| 20260505065831 | 13 | 223 | 0.0 | 0.0 | 0.00 | 0.00 | 0.00 | 76 | 1017.1 |
| 20260505065327 | 13 | 224 | 0.0 | 0.0 | 0.00 | 0.00 | 0.00 | 76 | 1017.0 |
| 20260505064825 | 13 | 221 | 0.0 | 8.0 | 0.00 | 0.00 | 0.00 | 76 | 1017.0 |
| 20260505064321 | 13 | 182 | 0.0 | 0.0 | 0.00 | 0.00 | 0.00 | 76 | 1017.0 |
| 20260505063820 | 13 | 212 | 0.0 | 0.0 | 0.00 | 0.00 | 0.00 | 76 | 1016.9 |
| 20260505063315 | 13 | 223 | 0.0 | 0.0 | 0.00 | 0.00 | 0.00 | 76 | 1017.0 |
| 20260505062812 | 13 | 193 | 0.0 | 0.0 | 0.00 | 0.00 | 0.00 | 75 | 1016.9 |
| 20260505062310 | 13 | 229 | 0.0 | 0.0 | 0.00 | 0.00 | 0.00 | 74 | 1016.8 |
| 20260505061806 | 13 | 232 | 0.0 | 0.0 | 0.00 | 0.00 | 0.00 | 75 | 1016.9 |
| 20260505061305 | 13 | 228 | 0.0 | 0.0 | 0.00 | 0.00 | 0.00 | 74 | 1016.8 |
| 20260505060802 | 14 | 191 | 0.0 | 0.0 | 0.00 | 0.00 | 0.00 | 74 | 1016.7 |
| 20260505060259 | 14 | 219 | 0.0 | 4.8 | 0.00 | 0.00 | 0.00 | 74 | 1016.7 |
| 20260505055754 | 14 | 198 | 0.0 | 0.0 | 0.00 | 0.00 | 0.00 | 73 | 1016.4 |
| 20260505055250 | 14 | 157 | 0.0 | 0.0 | 0.00 | 0.00 | 0.00 | 73 | 1016.4 |
| 20260505054748 | 14 | 197 | 0.0 | 0.0 | 0.00 | 0.00 | 0.00 | 73 | 1016.2 |
| 20260505054245 | 14 | 196 | 0.0 | 0.0 | 0.00 | 0.00 | 0.00 | 72 | 1016.4 |
| 20260505053744 | 15 | 132 | 0.0 | 0.0 | 0.00 | 0.00 | 0.00 | 72 | 1016.2 |
| 20260505053240 | 15 | 205 | 0.0 | 0.0 | 0.00 | 0.00 | 0.00 | 72 | 1016.4 |
| 20260505052737 | 15 | 185 | 0.0 | 0.0 | 0.00 | 0.00 | 0.00 | 71 | 1016.2 |
| 20260505052234 | 15 | 188 | 0.0 | 0.0 | 0.00 | 0.00 | 0.00 | 70 | 1016.3 |
| 20260505051731 | 15 | 148 | 0.0 | 0.0 | 0.00 | 0.00 | 0.00 | 70 | 1016.1 |
| 20260505051229 | 15 | 195 | 0.0 | 0.0 | 0.00 | 0.00 | 0.00 | 69 | 1016.2 |
| 20260505050727 | 15 | 212 | 0.0 | 0.0 | 0.00 | 0.00 | 0.00 | 69 | 1016.0 |
| 20260505050225 | 16 | 210 | 0.0 | 0.0 | 0.00 | 0.00 | 0.00 | 69 | 1016.0 |
| 20260505041654 | 17 | 283 | 0.0 | 0.0 | 0.00 | 0.00 | 0.00 | 64 | 1015.4 |
| 20260505041152 | 17 | 318 | 0.0 | 4.8 | 0.00 | 0.00 | 0.00 | 64 | 1015.3 |
| 20260505040649 | 17 | 236 | 0.0 | 8.0 | 0.00 | 0.00 | 0.00 | 63 | 1015.4 |
| 20260505040146 | 17 | 221 | 0.0 | 0.0 | 0.00 | 0.00 | 0.00 | 63 | 1015.3 |
| 20260505035642 | 17 | 217 | 0.0 | 0.0 | 0.00 | 0.00 | 0.00 | 62 | 1015.1 |
| 20260505035138 | 18 | 237 | 0.0 | 4.8 | 0.00 | 0.00 | 0.00 | 61 | 1015.1 |
| 20260505034635 | 18 | 210 | 0.0 | 0.0 | 0.00 | 0.00 | 0.00 | 61 | 1015.0 |
| 20260505034132 | 18 | 212 | 0.0 | 0.0 | 0.00 | 0.00 | 0.00 | 60 | 1014.8 |
| 20260505033628 | 18 | 149 | 0.0 | 4.8 | 0.00 | 0.00 | 0.00 | 60 | 1014.9 |
| 20260505033127 | 18 | 162 | 0.0 | 0.0 | 0.00 | 0.00 | 0.00 | 59 | 1014.8 |
| 20260505032625 | 19 | 290 | 0.0 | 0.0 | 0.00 | 0.00 | 0.00 | 59 | 1014.8 |
| 20260505032121 | 19 | 265 | 0.0 | 8.0 | 0.00 | 0.00 | 0.00 | 58 | 1014.6 |
| 20260505031618 | 20 | 233 | 0.0 | 0.0 | 0.00 | 0.00 | 0.00 | 57 | 1014.6 |
| 20260505031114 | 20 | 307 | 0.0 | 4.8 | 0.00 | 0.00 | 0.00 | 57 | 1014.5 |
| 20260505030612 | 20 | 215 | 0.0 | 8.0 | 0.00 | 0.00 | 0.00 | 56 | 1014.4 |
| 20260505030107 | 20 | 198 | 0.0 | 0.0 | 0.00 | 0.00 | 0.00 | 55 | 1014.2 |
| 20260505025603 | 21 | 200 | 0.0 | 4.8 | 0.00 | 0.00 | 0.00 | 54 | 1014.4 |
| 20260505025102 | 21 | 203 | 0.0 | 0.0 | 0.00 | 0.00 | 0.00 | 53 | 1014.2 |
| 20260505024559 | 21 | 254 | 0.0 | 0.0 | 0.00 | 0.00 | 0.00 | 53 | 1014.1 |
| 20260505024056 | 21 | 198 | 0.0 | 0.0 | 0.00 | 0.00 | 0.00 | 52 | 1014.3 |
| 20260505023554 | 21 | 222 | 0.0 | 0.0 | 0.00 | 0.00 | 0.00 | 51 | 1014.2 |
| 20260505023051 | 22 | 307 | 3.2 | 11.3 | 0.00 | 0.00 | 0.00 | 50 | 1014.0 |
| 20260505022548 | 22 | 279 | 0.0 | 0.0 | 0.00 | 0.00 | 0.00 | 50 | 1014.0 |
| 20260505022045 | 22 | 230 | 0.0 | 4.8 | 0.00 | 0.00 | 0.00 | 49 | 1013.9 |
| 20260505021542 | 23 | 244 | 0.0 | 0.0 | 0.00 | 0.00 | 0.00 | 49 | 1013.9 |
| 20260505021039 | 23 | 233 | 0.0 | 0.0 | 0.00 | 0.00 | 0.00 | 48 | 1013.7 |
| 20260505020538 | 23 | 293 | 0.0 | 4.8 | 0.00 | 0.00 | 0.00 | 48 | 1013.8 |
| 20260505020036 | 23 | 270 | 0.0 | 11.3 | 0.00 | 0.00 | 0.00 | 48 | 1013.8 |
| 20260505015533 | 24 | 270 | 0.0 | 0.0 | 0.00 | 0.00 | 0.00 | 48 | 1013.6 |
| 20260505015030 | 24 | 235 | 0.0 | 4.8 | 0.00 | 0.00 | 0.00 | 47 | 1013.7 |
| 20260505014526 | 25 | 205 | 0.0 | 0.0 | 0.00 | 0.00 | 0.00 | 47 | 1013.8 |
| 20260505014024 | 25 | 252 | 0.0 | 0.0 | 0.00 | 0.00 | 0.00 | 46 | 1013.7 |
| 20260505013521 | 25 | 235 | 0.0 | 4.8 | 0.00 | 0.00 | 0.00 | 45 | 1013.7 |
| 20260505013018 | 25 | 227 | 0.0 | 0.0 | 0.00 | 0.00 | 0.00 | 44 | 1013.8 |
| 20260505012516 | 25 | 212 | 0.0 | 0.0 | 0.00 | 0.00 | 0.00 | 43 | 1013.7 |
| 20260505012013 | 25 | 248 | 0.0 | 0.0 | 0.00 | 0.00 | 0.00 | 43 | 1013.8 |
| 20260505011508 | 26 | 206 | 0.0 | 0.0 | 0.00 | 0.00 | 0.00 | 43 | 1013.7 |
| 20260505011006 | 25 | 305 | 0.0 | 8.0 | 0.00 | 0.00 | 0.00 | 43 | 1013.8 |
| 20260505010501 | 27 | 227 | 0.0 | 4.8 | 0.00 | 0.00 | 0.00 | 40 | 1013.8 |
| 20260505005957 | 27 | 222 | 0.0 | 0.0 | 0.00 | 0.00 | 0.00 | 39 | 1013.8 |
| 20260505005454 | 27 | 264 | 0.0 | 0.0 | 0.00 | 0.00 | 0.00 | 40 | 1013.8 |
| 20260505004952 | 27 | 306 | 0.0 | 4.8 | 0.00 | 0.00 | 0.00 | 39 | 1014.1 |
| 20260505004449 | 27 | 241 | 0.0 | 4.8 | 0.00 | 0.00 | 0.00 | 38 | 1013.9 |
| 20260505003945 | 27 | 269 | 0.0 | 8.0 | 0.00 | 0.00 | 0.00 | 38 | 1013.8 |
| 20260505003443 | 28 | 282 | 0.0 | 8.0 | 0.00 | 0.00 | 0.00 | 37 | 1013.9 |
| 20260505002938 | 28 | 236 | 0.0 | 0.0 | 0.00 | 0.00 | 0.00 | 38 | 1013.6 |
| 20260505002435 | 27 | 222 | 0.0 | 0.0 | 0.00 | 0.00 | 0.00 | 39 | 1013.9 |
| 20260505001934 | 27 | 292 | 3.2 | 8.0 | 0.00 | 0.00 | 0.00 | 37 | 1013.8 |
| 20260505001431 | 27 | 244 | 0.0 | 4.8 | 0.00 | 0.00 | 0.00 | 38 | 1013.8 |
| 20260505000927 | 28 | 265 | 4.8 | 8.0 | 0.00 | 0.00 | 0.00 | 35 | 1013.9 |
| 20260505000428 | 29 | 211 | 0.0 | 0.0 | 0.00 | 0.00 | 0.00 | 34 | 1013.7 |
| 20260504235922 | 28 | 199 | 0.0 | 0.0 | 0.00 | 0.00 | 0.00 | 35 | 1013.8 |
| 20260504235420 | 27 | 215 | 0.0 | 8.0 | 0.00 | 0.00 | 0.00 | 36 | 1013.7 |
| 20260504234915 | 27 | 264 | 0.0 | 0.0 | 0.00 | 0.00 | 0.00 | 37 | 1013.7 |
| 20260504234413 | 27 | 229 | 0.0 | 0.0 | 0.00 | 0.00 | 0.00 | 35 | 1013.8 |
| 20260504233910 | 28 | 210 | 0.0 | 0.0 | 0.00 | 0.00 | 0.00 | 33 | 1013.7 |
| 20260504233405 | 28 | 255 | 0.0 | 8.0 | 0.00 | 0.00 | 0.00 | 32 | 1013.6 |
| 20260504232902 | 28 | 310 | 0.0 | 4.8 | 0.00 | 0.00 | 0.00 | 34 | 1013.7 |
| 20260504232359 | 27 | 230 | 0.0 | 4.8 | 0.00 | 0.00 | 0.00 | 40 | 1013.6 |
| 20260504231856 | 28 | 275 | 0.0 | 4.8 | 0.00 | 0.00 | 0.00 | 37 | 1013.5 |
| 20260504231353 | 28 | 232 | 0.0 | 0.0 | 0.00 | 0.00 | 0.00 | 37 | 1013.9 |
| 20260504230849 | 28 | 274 | 0.0 | 4.8 | 0.00 | 0.00 | 0.00 | 37 | 1013.9 |
| 20260504230346 | 28 | 214 | 0.0 | 0.0 | 0.00 | 0.00 | 0.00 | 37 | 1014.0 |
| 20260504225845 | 27 | 235 | 0.0 | 0.0 | 0.00 | 0.00 | 0.00 | 38 | 1014.0 |
| 20260504225341 | 27 | 187 | 0.0 | 8.0 | 0.00 | 0.00 | 0.00 | 40 | 1014.2 |
| 20260504224839 | 27 | 264 | 1.6 | 11.3 | 0.00 | 0.00 | 0.00 | 39 | 1014.3 |
| 20260504224335 | 28 | 224 | 0.0 | 0.0 | 0.00 | 0.00 | 0.00 | 36 | 1014.4 |
| 20260504223832 | 27 | 277 | 0.0 | 0.0 | 0.00 | 0.00 | 0.00 | 38 | 1014.4 |
| 20260504223328 | 27 | 271 | 8.0 | 11.3 | 0.00 | 0.00 | 0.00 | 37 | 1014.2 |
| 20260504222824 | 27 | 265 | 0.0 | 8.0 | 0.00 | 0.00 | 0.00 | 38 | 1014.2 |
| 20260504222321 | 26 | 306 | 1.6 | 11.3 | 0.00 | 0.00 | 0.00 | 40 | 1014.7 |
| 20260504221820 | 28 | 289 | 1.6 | 11.3 | 0.00 | 0.00 | 0.00 | 40 | 1014.5 |
| 20260504221316 | 27 | 286 | 0.0 | 11.3 | 0.00 | 0.00 | 0.00 | 40 | 1014.5 |
| 20260504220813 | 27 | 274 | 0.0 | 11.3 | 0.00 | 0.00 | 0.00 | 41 | 1014.4 |
| 20260504220310 | 26 | 262 | 4.8 | 11.3 | 0.00 | 0.00 | 0.00 | 40 | 1014.4 |
| 20260504215808 | 26 | 292 | 0.0 | 11.3 | 0.00 | 0.00 | 0.00 | 41 | 1014.6 |
| 20260504215304 | 27 | 279 | 11.3 | 16.1 | 0.00 | 0.00 | 0.00 | 39 | 1014.7 |
| 20260504214800 | 27 | 280 | 11.3 | 16.1 | 0.00 | 0.00 | 0.00 | 38 | 1014.7 |
| 20260504214256 | 27 | 128 | 0.0 | 0.0 | 0.00 | 0.00 | 0.00 | 40 | 1014.8 |
| 20260504213753 | 26 | 196 | 0.0 | 16.1 | 0.00 | 0.00 | 0.00 | 41 | 1014.7 |
| 20260504213249 | 25 | 301 | 4.8 | 16.1 | 0.00 | 0.00 | 0.00 | 43 | 1014.6 |
| 20260504212746 | 26 | 263 | 4.8 | 11.3 | 0.00 | 0.00 | 0.00 | 39 | 1014.9 |
| 20260504212243 | 27 | 287 | 0.0 | 0.0 | 0.00 | 0.00 | 0.00 | 39 | 1014.9 |
| 20260504211741 | 27 | 266 | 0.0 | 0.0 | 0.00 | 0.00 | 0.00 | 40 | 1014.7 |
| 20260504211236 | 26 | 257 | 0.0 | 0.0 | 0.00 | 0.00 | 0.00 | 40 | 1014.8 |
| 20260504210734 | 26 | 221 | 0.0 | 16.1 | 0.00 | 0.00 | 0.00 | 42 | 1014.9 |
| 20260504210231 | 26 | 305 | 0.0 | 11.3 | 0.00 | 0.00 | 0.00 | 37 | 1014.8 |
| 20260504205728 | 26 | 286 | 4.8 | 11.3 | 0.00 | 0.00 | 0.00 | 37 | 1014.9 |
| 20260504205226 | 26 | 220 | 0.0 | 0.0 | 0.00 | 0.00 | 0.00 | 37 | 1015.0 |
| 20260504204724 | 26 | 220 | 0.0 | 0.0 | 0.00 | 0.00 | 0.00 | 35 | 1014.9 |
| 20260504204222 | 27 | 252 | 0.0 | 0.0 | 0.00 | 0.00 | 0.00 | 34 | 1014.8 |
| 20260504203721 | 26 | 253 | 0.0 | 0.0 | 0.00 | 0.00 | 0.00 | 34 | 1015.0 |
| 20260504203218 | 26 | 129 | 4.8 | 8.0 | 0.00 | 0.00 | 0.00 | 35 | 1015.0 |
| 20260504202718 | 25 | 288 | 6.4 | 16.1 | 0.00 | 0.00 | 0.00 | 36 | 1015.2 |
| 20260504202215 | 26 | 260 | 0.0 | 0.0 | 0.00 | 0.00 | 0.00 | 34 | 1015.0 |
| 20260504201712 | 27 | 176 | 0.0 | 0.0 | 0.00 | 0.00 | 0.00 | 32 | 1015.0 |
| 20260504201209 | 26 | 166 | 0.0 | 0.0 | 0.00 | 0.00 | 0.00 | 33 | 1015.2 |
| 20260504200707 | 26 | 133 | 0.0 | 4.8 | 0.00 | 0.00 | 0.00 | 36 | 1015.2 |
| 20260504200203 | 27 | 229 | 0.0 | 0.0 | 0.00 | 0.00 | 0.00 | 34 | 1015.2 |
| 20260504195659 | 26 | 160 | 0.0 | 0.0 | 0.00 | 0.00 | 0.00 | 33 | 1015.2 |
| 20260504195155 | 26 | 164 | 0.0 | 4.8 | 0.00 | 0.00 | 0.00 | 34 | 1015.2 |
| 20260504194653 | 27 | 254 | 0.0 | 0.0 | 0.00 | 0.00 | 0.00 | 34 | 1015.4 |
| 20260504194148 | 27 | 168 | 0.0 | 0.0 | 0.00 | 0.00 | 0.00 | 34 | 1015.2 |
| 20260504193645 | 26 | 219 | 0.0 | 0.0 | 0.00 | 0.00 | 0.00 | 36 | 1015.4 |
| 20260504193143 | 26 | 274 | 0.0 | 4.8 | 0.00 | 0.00 | 0.00 | 37 | 1015.4 |
| 20260504192641 | 26 | 211 | 0.0 | 4.8 | 0.00 | 0.00 | 0.00 | 37 | 1015.4 |
| 20260504192139 | 26 | 193 | 0.0 | 0.0 | 0.00 | 0.00 | 0.00 | 39 | 1015.4 |
| 20260504191637 | 26 | 258 | 0.0 | 0.0 | 0.00 | 0.00 | 0.00 | 37 | 1015.4 |
| 20260504191133 | 25 | 244 | 0.0 | 0.0 | 0.00 | 0.00 | 0.00 | 38 | 1015.6 |
| 20260504190629 | 25 | 202 | 0.0 | 0.0 | 0.00 | 0.00 | 0.00 | 38 | 1015.6 |
| 20260504190126 | 25 | 190 | 0.0 | 0.0 | 0.00 | 0.00 | 0.00 | 39 | 1015.3 |
| 20260504185622 | 25 | 226 | 0.0 | 8.0 | 0.00 | 0.00 | 0.00 | 42 | 1015.5 |
| 20260504185119 | 24 | 306 | 1.6 | 8.0 | 0.00 | 0.00 | 0.00 | 41 | 1015.6 |
| 20260504184614 | 25 | 242 | 0.0 | 8.0 | 0.00 | 0.00 | 0.00 | 39 | 1015.5 |
| 20260504184110 | 25 | 123 | 0.0 | 4.8 | 0.00 | 0.00 | 0.00 | 41 | 1015.5 |
| 20260504183607 | 25 | 234 | 0.0 | 8.0 | 0.00 | 0.00 | 0.00 | 40 | 1015.5 |
| 20260504183105 | 25 | 172 | 0.0 | 0.0 | 0.00 | 0.00 | 0.00 | 41 | 1015.7 |
| 20260504182602 | 26 | 210 | 0.0 | 0.0 | 0.00 | 0.00 | 0.00 | 39 | 1015.6 |
| 20260504182059 | 26 | 201 | 0.0 | 0.0 | 0.00 | 0.00 | 0.00 | 41 | 1015.7 |
| 20260504181556 | 25 | 126 | 0.0 | 4.8 | 0.00 | 0.00 | 0.00 | 42 | 1015.8 |
| 20260504181054 | 24 | 156 | 0.0 | 4.8 | 0.00 | 0.00 | 0.00 | 43 | 1015.8 |
| 20260504180553 | 25 | 150 | 0.0 | 0.0 | 0.00 | 0.00 | 0.00 | 41 | 1015.5 |
| 20260504180052 | 25 | 210 | 0.0 | 0.0 | 0.00 | 0.00 | 0.00 | 41 | 1015.9 |
| 20260504175548 | 23 | 122 | 0.0 | 4.8 | 0.00 | 0.00 | 0.00 | 45 | 1015.6 |
| 20260504175045 | 24 | 137 | 1.6 | 8.0 | 0.00 | 0.00 | 0.00 | 42 | 1015.6 |
| 20260504174543 | 25 | 131 | 0.0 | 0.0 | 0.00 | 0.00 | 0.00 | 44 | 1015.6 |
| 20260504174040 | 24 | 264 | 0.0 | 0.0 | 0.00 | 0.00 | 0.00 | 44 | 1015.7 |
| 20260504173537 | 23 | 214 | 0.0 | 8.0 | 0.00 | 0.00 | 0.00 | 47 | 1015.8 |
| 20260504173034 | 22 | 142 | 1.6 | 8.0 | 0.00 | 0.00 | 0.00 | 47 | 1015.6 |
| 20260504172530 | 23 | 133 | 0.0 | 0.0 | 0.00 | 0.00 | 0.00 | 46 | 1015.6 |
| 20260504172027 | 24 | 157 | 0.0 | 0.0 | 0.00 | 0.00 | 0.00 | 45 | 1015.6 |
| 20260504171524 | 23 | 258 | 0.0 | 0.0 | 0.00 | 0.00 | 0.00 | 45 | 1015.8 |
| 20260504171021 | 24 | 169 | 0.0 | 0.0 | 0.00 | 0.00 | 0.00 | 45 | 1015.6 |
| 20260504170516 | 23 | 130 | 0.0 | 0.0 | 0.00 | 0.00 | 0.00 | 45 | 1015.6 |
| 20260504160437 | 20 | 162 | 0.0 | 0.0 | 0.00 | 0.00 | 0.00 | 57 | 1015.5 |
| 20260504150900 | 13 | 171 | 0.0 | 0.0 | 0.00 | 0.00 | 0.00 | 73 | 1015.2 |
| 20260504150357 | 13 | 124 | 0.0 | 0.0 | 0.00 | 0.00 | 0.00 | 74 | 1015.3 |
| 20260504141327 | 11 | 188 | 0.0 | 0.0 | 0.00 | 0.00 | 0.00 | 81 | 1014.8 |
| 20260504140823 | 11 | 158 | 0.0 | 0.0 | 0.00 | 0.00 | 0.00 | 81 | 1015.0 |
| 20260504140319 | 11 | 154 | 0.0 | 0.0 | 0.00 | 0.00 | 0.00 | 82 | 1014.9 |
| 20260504130748 | 10 | 185 | 0.0 | 0.0 | 0.00 | 0.00 | 0.00 | 87 | 1014.2 |
| 20260504130244 | 10 | 180 | 0.0 | 0.0 | 0.00 | 0.00 | 0.00 | 87 | 1014.2 |
| 20260504120208 | 10 | 197 | 0.0 | 0.0 | 0.00 | 0.00 | 0.00 | 87 | 1014.0 |
| 20260504110635 | 11 | 162 | 0.0 | 0.0 | 0.00 | 0.00 | 0.00 | 85 | 1013.7 |
| 20260504110131 | 11 | 171 | 0.0 | 0.0 | 0.00 | 0.00 | 0.00 | 85 | 1013.9 |
| 20260504100551 | 12 | 148 | 0.0 | 0.0 | 0.00 | 0.00 | 0.00 | 83 | 1013.8 |
| 20260504081945 | 13 | 200 | 0.0 | 0.0 | 0.00 | 0.00 | 0.00 | 79 | 1014.1 |
| 20260504081442 | 13 | 155 | 0.0 | 0.0 | 0.00 | 0.00 | 0.00 | 79 | 1014.0 |
| 20260504080938 | 13 | 201 | 0.0 | 0.0 | 0.00 | 0.00 | 0.00 | 78 | 1014.0 |
| 20260504080435 | 13 | 176 | 0.0 | 0.0 | 0.00 | 0.00 | 0.00 | 78 | 1013.9 |
| 20260504070403 | 15 | 192 | 0.0 | 0.0 | 0.00 | 0.00 | 0.00 | 75 | 1013.7 |